Regional Weather Roundup
Issued by NWS

Home | Current Version | Previous Version | Graphics & Text | Print | Product List | Glossary On
Versions: 1 2 3 4 5 6 7 8 9 10 11 12 13 14 15 16 17 18 19 20 21 22 23 24 25 26 27 28 29 30 31 32 33 34 35 36 37 38 39 40 41 42 43 44 45 46 47 48 49 50
545
ASUS44 KJAN 220703
RWRMS

MISSISSIPPI HOURLY WEATHER ROUNDUP
NATIONAL WEATHER SERVICE JACKSON MS
200 AM CDT MON SEP 22 2014

NOTE: "FAIR: INDICATES FEW OR NO CLOUDS BELOW 12,000 FEET WITH NO
SIGNIFICANT WEATHER AND/OR OBSTRUCTIONS TO VISIBILITY.

MSZ001>002-007>008-010>013-018>021-025>028-034>036-220800-
NORTHWEST MISSISSIPPI

CITY           SKY/WX    TMP DP  RH WIND       PRES   REMARKS
CLARKSDALE     FAIR      66  55  68 N7        30.09S
CLEVELAND      PTSUNNY   71  58  63 N7        30.06S
GREENWOOD      MOCLDY    71  64  78 N5        30.05R
GREENVILLE     PTCLDY    73  55  53 N7        30.06R
GRENADA        PTSUNNY   70  59  68 NE5       30.06S
OLIVE BRANCH   CLEAR     64  54  68 N9        30.10S
OXFORD           N/A     66  54  63 N8        30.09S
TUNICA         SUNNY     63  54  72 N8        30.11R
$$

MSZ003>006-009-014>017-022>024-029>033-037>039-220800-
NORTHEAST MISSISSIPPI

CITY           SKY/WX    TMP DP  RH WIND       PRES   REMARKS
COLUMBUS AFB   MOCLDY    73  58  60 N6        30.03R
CORINTH          N/A     63  52  67 NW6       30.07S
GOLDN TRIANGLE PTCLDY    70  63  78 N8        30.04S
STARKVILLE     PTSUNNY   72  61  68 N5        30.04S
TUPELO         PTCLDY    65  56  72 NE7       30.05S
$$

MSZ040-058-220800-
CENTRAL MISSISSIPPI

CITY           SKY/WX    TMP DP  RH WIND       PRES   REMARKS
JACKSON INTL   CLEAR     75  68  78 CALM      30.01F
JACKSON HAWKNS PTCLDY    76  68  76 NW6       30.02F
MERIDIAN KEY   CLOUDY    70  67  90 CALM      30.00S
MERIDIAN NAS   CLOUDY    73  67  81 N7        30.01R
RAYMOND        FAIR      70  64  83 CALM      30.02F HAZE
VICKSBURG      CLEAR     76  69  79 N5        30.03S
$$

MSZ059>079-220800-
SOUTH MISSISSIPPI

CITY           SKY/WX    TMP DP  RH WIND       PRES   REMARKS
BROOKHAVEN     FAIR      70  66  88 CALM      30.05S
COLUMBIA       FAIR      64  64 100 CALM      30.01S
HATTIESBURG    CLEAR     70  67  90 CALM      30.02F
MCCOMB         CLEAR     67  65  93 S3        30.03S
NATCHEZ        CLEAR     72  68  88 CALM      30.03S
PINE BELT      CLEAR    N/A N/A N/A CALM      30.02F
$$

MSZ080>082-220800-
COASTAL MISSISSIPPI

CITY           SKY/WX    TMP DP  RH WIND       PRES   REMARKS
BILOXI         CLEAR     74  72  93 N2        30.00S
PASCAGOULA     CLEAR     66  66 100 CALM      30.00F FOG
GULFPORT       CLEAR     71  69  93 CALM      30.00S
$$



USA.gov is the U.S. government's official web portal to all federal, state and local government web resources and services.